"Pseudo-MPEC" for P10LfOx

Created 2019 Jan 15 11:18:19 UT using Find_Orb

Click here for an explanation of pseudo-MPECs

 
 Astrometry: 
     P10LfOx  C2019 01 09Y7g=7PgKY.VAstrometry3ZjpWYSmsbGcTJebp$uvocm-mZ2LCB`F51
     P10LfOx  C2019 01 09[s\wtRE?:oD5kmR_Fs2L.fredacted;sWG7Y(0Y_p1*5%S3oD'G]F51
     P10LfOx  C2019 01 09V`G3WHJ6*5,ctOXlTeYI/`KGBLXj_a`4r.8bl'IVUK+gq9RQc7h=F51
     P10LfOx KC2019 01 10XVuF(]^jP@9,u?k=6*ogGeYi(F*W$clickyl6UA\7Xt'.:unjn_-H21
     P10LfOx KC2019 01 10_5J+s\cr(y'I['VyjJt^:hx!MvXSuT80$C):aUB`\EvT',TqV(/KH21
     P10LfOx KC2019 01 10+Y8CCq@'e'\.BsSMZJ[+d;+5Xg:prMc;p45Qy=ha_a;#hhereO'JH21
     P10LfOx  C2019 01 14RKjlub?8WjLlAc/gJ(YmX`qmH_i;bAf,h;naT%QZqM`5\(7a0qTBF51
     P10LfOx  C2019 01 14tLT:forXBV)d+5DVb_kxg)9QTmNer=E\v?.*Z@L6F/+xxb`]-9$6F51
     P10LfOx  C2019 01 14LGU/wt='T8SD^=xD;w,V4mI9^Uo(/S8\mkxBbYvgu9*s]yJC/_62F51
     P10LfOx  C2019 01 14To3.=$,_A@5explanationA-047*KjTHTm_fE3TFD,:?/1xop?5+F51

Station data:
(F51) Pan-STARRS 1, Haleakala  (N20.707235 W156.255910)  US/Hawaii.
   Observers N. Primak, A. Schultz, S. Watters, J. Thiel, T. Goggia. Measurer
   PS1 Science Consortium. 1.8-m Ritchey-Chrétien + CCD.
(H21) Astronomical Research Observatory, Westfield  (N39.483057 W87.968270)
   US/Illinois. 0.76-m f/3.0 astrograph + CCD.

Orbital elements:  P10LfOx
   Perihelion 2018 Nov 9.701097 +/- 0.916 TT = 16:49:34 (JD 2458432.201097)
Epoch 2019 Jan 14.0 TT = JDT 2458497.5   Earth MOID: 0.5612   Ma: 0.0275
M  26.42733051 +/- 0.26             (J2000 ecliptic)          AutoNEOCP
n   0.40471323 +/- 0.00501          Peri.  354.75993 +/- 0.56
a   1.81010780 +/- 0.015            Node    89.41200 +/- 0.22
e   0.1467751 +/- 0.00452           Incl.   27.03290 +/- 0.31
P   2.44/889.50d           H 21.0   G  0.15   U  9.2  
q 1.54442896 +/- 0.00551    Q 2.07578664 +/- 0.0253
From 10 observations 2019 Jan. 9-14; mean residual 0".18
Residuals in arcseconds: 
190109 F51  .07-  .07+    190110 H21  .10-  .17+    190114 F51  .02-  .12-    
190109 F51  .13+  .24-    190110 H21  .48+  .08+    190114 F51  .11-  .02+    
190109 F51  .05-  .18+    190114 F51  .10+  .02-    
190110 H21  .39-  .25-    190114 F51  .03+  .12+    

Ephemerides (geocentric):
Date (UTC) HH   RA              Dec         delta   r     elong  mag " sig PA
---- -- -- --  -------------   -----------  ------ ------ -----  --- ---- ---
2019 01 15 11  09 04 03.479   +51 51 24.43  .66996 1.5833 145.8 22.2 .640  60
2019 01 15 12  09 04 00.857   +51 52 51.67  .67005 1.5834 145.8 22.2 .669  60
2019 01 15 13  09 03 58.229   +51 54 18.83  .67013 1.5834 145.8 22.2 .699  60
2019 01 15 14  09 03 55.595   +51 55 45.91  .67022 1.5835 145.8 22.2 .729  60
2019 01 15 15  09 03 52.955   +51 57 12.89  .67030 1.5835 145.8 22.2 .760  60
2019 01 15 16  09 03 50.308   +51 58 39.80  .67039 1.5836 145.8 22.2 .791  60
2019 01 15 17  09 03 47.655   +52 00 06.62  .67047 1.5836 145.8 22.2 .822  60
2019 01 15 18  09 03 44.997   +52 01 33.36  .67056 1.5837 145.8 22.2 .853  60
2019 01 15 19  09 03 42.332   +52 03 00.01  .67065 1.5837 145.8 22.2 .885  60
2019 01 15 20  09 03 39.660   +52 04 26.57  .67073 1.5838 145.8 22.2 .918  60
2019 01 15 21  09 03 36.983   +52 05 53.05  .67082 1.5838 145.8 22.2 .950  60
2019 01 15 22  09 03 34.300   +52 07 19.44  .67091 1.5838 145.7 22.2 .983  61
2019 01 15 23  09 03 31.610   +52 08 45.75  .67100 1.5839 145.7 22.2 1.02  61
2019 01 16 00  09 03 28.914   +52 10 11.97  .67109 1.5839 145.7 22.2 1.05  61
2019 01 16 01  09 03 26.212   +52 11 38.11  .67118 1.5840 145.7 22.2 1.08  61
2019 01 16 02  09 03 23.504   +52 13 04.16  .67126 1.5840 145.7 22.2 1.12  61
2019 01 16 03  09 03 20.790   +52 14 30.12  .67135 1.5841 145.7 22.2 1.15  61
2019 01 16 04  09 03 18.070   +52 15 56.00  .67144 1.5841 145.7 22.2 1.19  61
2019 01 16 05  09 03 15.344   +52 17 21.79  .67153 1.5842 145.7 22.2 1.22  61
2019 01 16 06  09 03 12.612   +52 18 47.49  .67163 1.5842 145.7 22.2 1.26  61
2019 01 16 07  09 03 09.873   +52 20 13.11  .67172 1.5843 145.7 22.2 1.30  61
2019 01 16 08  09 03 07.129   +52 21 38.64  .67181 1.5843 145.6 22.2 1.33  61
2019 01 16 09  09 03 04.379   +52 23 04.08  .67190 1.5844 145.6 22.2 1.37  61
2019 01 16 10  09 03 01.622   +52 24 29.43  .67199 1.5844 145.6 22.2 1.41  61
2019 01 16 11  09 02 58.860   +52 25 54.70  .67209 1.5845 145.6 22.2 1.44  61
2019 01 16 12  09 02 56.091   +52 27 19.88  .67218 1.5845 145.6 22.2 1.48  60
2019 01 16 13  09 02 53.316   +52 28 44.97  .67227 1.5846 145.6 22.2 1.52  60
2019 01 16 14  09 02 50.536   +52 30 09.97  .67237 1.5846 145.6 22.2 1.56  60
2019 01 16 15  09 02 47.749   +52 31 34.89  .67246 1.5846 145.6 22.2 1.60  60
2019 01 16 16  09 02 44.957   +52 32 59.71  .67255 1.5847 145.6 22.2 1.64  60
2019 01 16 17  09 02 42.158   +52 34 24.45  .67265 1.5847 145.6 22.2 1.68  60
2019 01 16 18  09 02 39.354   +52 35 49.10  .67274 1.5848 145.5 22.2 1.72  60
2019 01 16 19  09 02 36.543   +52 37 13.66  .67284 1.5848 145.5 22.2 1.76  60
2019 01 16 20  09 02 33.727   +52 38 38.13  .67294 1.5849 145.5 22.2 1.80  60
2019 01 16 21  09 02 30.904   +52 40 02.51  .67303 1.5849 145.5 22.2 1.84  60
2019 01 16 22  09 02 28.076   +52 41 26.80  .67313 1.5850 145.5 22.2 1.88  60
2019 01 16 23  09 02 25.242   +52 42 51.01  .67323 1.5850 145.5 22.2 1.92  60
2019 01 17 00  09 02 22.402   +52 44 15.12  .67332 1.5851 145.5 22.2 1.97  60
2019 01 17 01  09 02 19.555   +52 45 39.14  .67342 1.5851 145.5 22.2 2.01  60
2019 01 17 02  09 02 16.703   +52 47 03.08  .67352 1.5852 145.5 22.2 2.05  60
2019 01 17 03  09 02 13.846   +52 48 26.92  .67362 1.5852 145.4 22.2 2.09  60
2019 01 17 04  09 02 10.982   +52 49 50.67  .67372 1.5853 145.4 22.2 2.14  60
2019 01 17 05  09 02 08.112   +52 51 14.33  .67382 1.5853 145.4 22.2 2.18  60
2019 01 17 06  09 02 05.237   +52 52 37.91  .67392 1.5854 145.4 22.2 2.23  60
2019 01 17 07  09 02 02.355   +52 54 01.39  .67402 1.5854 145.4 22.2 2.27  60
2019 01 17 08  09 01 59.468   +52 55 24.78  .67412 1.5855 145.4 22.2 2.32  60
2019 01 17 09  09 01 56.575   +52 56 48.08  .67422 1.5855 145.4 22.2 2.36  60
2019 01 17 10  09 01 53.676   +52 58 11.29  .67432 1.5855 145.4 22.2 2.41  60